{"data":{"norad_id":59065,"epoch":"2026-09-19T23:14:22.280352Z","epoch_age_seconds":67854,"freshness":"FRESH","line1":"1 59065U 24039Q   26262.96831343  .00008405  00000+0  16513-3 0  9993","line2":"2 59065  97.4930 247.0585 0010825 123.6356 236.5928 15.47505936143291","mean_motion":15.47505936,"eccentricity":0.0010825,"inclination_deg":97.493,"raan_deg":247.0585,"arg_perigee_deg":123.6356,"mean_anomaly_deg":236.5928,"bstar":0.00016513,"rev_number":14329,"period_min":93.052954854708,"perigee_km":416.66147306273,"apogee_km":431.38815338837,"semimajor_km":6802.1618132255,"source":"CELESTRAK","updated_at":"2026-09-20T09:00:33.978682Z"}}